"Pseudo-MPEC" for CDJC0Q2

Created 2025 Oct 18 1:35:11 UT using Find_Orb

Click here for an explanation of pseudo-MPECs

 
 Astrometry: 
     CDJC0Q2*1C2025 10 03.21054423 07 34.626+32 16 11.24   ~A37Z 21.82GVNEOCPG96
     CDJC0Q2 1C2025 10 03.21579923 07 34.367+32 16 06.02   ~A37Z 21.83GVNEOCPG96
     CDJC0Q2 1C2025 10 03.22630323 07 33.791+32 15 54.47   ~A37Z 21.12GVNEOCPG96
     CDJC0Q2 KC2025 10 03.28406323 07 30.731+32 14 54.60   ~A37o 22.07GVNEOCPV06
     CDJC0Q2 KC2025 10 03.28853023 07 30.486+32 14 50.06   ~A37o 21.91GVNEOCPV06
     CDJC0Q2 KC2025 10 03.29299423 07 30.259+32 14 45.35   ~A37o 21.69GVNEOCPV06
     CDJC0Q2 KC2025 10 03.29745923 07 30.022+32 14 40.52   ~A37o 21.66GVNEOCPV06
     CDJC0Q2 KC2025 10 04.09734923 06 52.312+32 00 40.64   ~A435 21.91GVNEOCPV06
     CDJC0Q2 KC2025 10 04.10211323 06 52.085+32 00 35.75   ~A435 21.32GVNEOCPV06
     CDJC0Q2 KC2025 10 04.10687823 06 51.872+32 00 30.78   ~A435 21.70GVNEOCPV06
     CDJC0Q2 KC2025 10 04.11164223 06 51.628+32 00 25.74   ~A435 21.81GVNEOCPV06

Station data:
(G96) Mt. Lemmon Survey  (N32.442729 W110.788720)  US/Arizona.  Observer E.
   J. Christensen. Measurers T. Beuden, V. F. Carvajal, D. Fay, J. B.
   Fazekas, D. C. Fuls, A. R. Gibbs, A. D. Grauer, H. Gröller, J. K. Hogan,
   R. A. Kowalski, S. M. Larson, G. J. Leonard, D. Rankin, R. L. Seaman, F.
   C. Shelly, K. W. Wierzchoś. 1.5-m reflector + 10K CCD.
(V06) Catalina Sky Survey-Kuiper  (N32.416871 W110.732550)  US/Arizona.
   Measurers T. Beuden, V. F. Carvajal, D. Fay, J. B. Fazekas, D. C. Fuls, A.
   R. Gibbs, A. D. Grauer, H. Gröller, J. K. Hogan, R. A. Kowalski, S. M.
   Larson, G. J. Leonard, D. Rankin, R. L. Seaman, F. C. Shelly, K. W.
   Wierzchoś. 1.55-m reflector + CCD.

Orbital elements:  CDJC0Q2
   Perihelion 2025 Mar 21.351854 +/- 239 TT =  8:26:40.1 (JD 2460755.851854)
Epoch 2025 Oct  4.0 TT = JDT 2460952.5   Earth MOID: 0.2542      AutoNEOCP
M  72.109500224 +/- 80              (J2000 ecliptic)
n   0.366693008 +/- 0.0745          Peri.  354.490548 +/- 60
a   1.933159240 +/- 0.262           Node   259.651829 +/- 19
e   0.34391561 +/- 0.172            Incl.   18.404104 +/- 4.5
P   2.688/981.729d         H 19.53  G  0.15   U 11.1  SR
q 1.268315594 +/- 0.237    Q 2.598002886 +/- 0.799
From 11 observations 2025 Oct. 3-4 (21.6 hr); mean residual 0".22
Residuals in arcseconds: 
251003 G96  .28+  .10-    251003 V06  .33-  .20+    251004 V06  .07-  .04+    
251003 G96  .50+  .14+    251003 V06  .25-  .18+    251004 V06  .22+  .01+    
251003 G96  .19+  .48-    251003 V06  .30-  .05+    251004 V06  .11+  .09-    
251003 V06  .18-  .04+    251004 V06  .17-  .00     

Ephemerides (geocentric):
Date (UTC) HH   RA             Dec           delta  r     elong  mag " sig PA
---- --------  ------------   ------------  ------ ------ -----  --- --------
2025 10 18 02  22 59 49.810   +27 46 01.72  1.1441 2.0123 140.0 22.3 1393 170
2025 10 18 03  22 59 49.263   +27 45 16.17  1.1445 2.0125 140.0 22.3 1401 171
2025 10 18 04  22 59 48.720   +27 44 30.62  1.1448 2.0126 140.0 22.3 1409 171
2025 10 18 05  22 59 48.182   +27 43 45.09  1.1451 2.0128 140.0 22.3 1417 171
2025 10 18 06  22 59 47.647   +27 42 59.56  1.1455 2.0130 139.9 22.3 1425 171
2025 10 18 07  22 59 47.117   +27 42 14.05  1.1458 2.0131 139.9 22.3 1433 171
2025 10 18 08  22 59 46.591   +27 41 28.54  1.1462 2.0133 139.9 22.3 1441 171
2025 10 18 09  22 59 46.069   +27 40 43.04  1.1465 2.0135 139.9 22.3 1449 171
2025 10 18 10  22 59 45.552   +27 39 57.55  1.1468 2.0137 139.9 22.3 1457 171
2025 10 18 11  22 59 45.038   +27 39 12.07  1.1472 2.0138 139.8 22.3 1466 171
2025 10 18 12  22 59 44.529   +27 38 26.60  1.1475 2.0140 139.8 22.3 1474 171
2025 10 18 13  22 59 44.024   +27 37 41.14  1.1479 2.0142 139.8 22.3 1482 171
2025 10 18 14  22 59 43.523   +27 36 55.68  1.1482 2.0143 139.8 22.3 1490 171
2025 10 18 15  22 59 43.026   +27 36 10.24  1.1485 2.0145 139.7 22.3 1499 171
2025 10 18 16  22 59 42.534   +27 35 24.81  1.1489 2.0147 139.7 22.3 1507 171
2025 10 18 17  22 59 42.045   +27 34 39.39  1.1492 2.0148 139.7 22.3 1515 171
2025 10 18 18  22 59 41.561   +27 33 53.97  1.1496 2.0150 139.7 22.3 1523 171
2025 10 18 19  22 59 41.081   +27 33 08.57  1.1499 2.0152 139.7 22.3 1532 171
2025 10 18 20  22 59 40.605   +27 32 23.18  1.1503 2.0153 139.6 22.3 1540 171
2025 10 18 21  22 59 40.133   +27 31 37.79  1.1506 2.0155 139.6 22.3 1549 171
2025 10 18 22  22 59 39.666   +27 30 52.42  1.1509 2.0157 139.6 22.3 1557 171
2025 10 18 23  22 59 39.202   +27 30 07.06  1.1513 2.0158 139.6 22.3 1565 171
2025 10 19 00  22 59 38.743   +27 29 21.70  1.1516 2.0160 139.5 22.3 1574 171
2025 10 19 01  22 59 38.288   +27 28 36.36  1.1520 2.0162 139.5 22.3 1582 171
2025 10 19 02  22 59 37.837   +27 27 51.03  1.1523 2.0164 139.5 22.3 1591 171
2025 10 19 03  22 59 37.390   +27 27 05.71  1.1527 2.0165 139.5 22.3 1599 171
2025 10 19 04  22 59 36.948   +27 26 20.39  1.1530 2.0167 139.4 22.3 1608 171
2025 10 19 05  22 59 36.509   +27 25 35.09  1.1534 2.0169 139.4 22.3 1616 171
2025 10 19 06  22 59 36.075   +27 24 49.80  1.1537 2.0170 139.4 22.3 1625 171
2025 10 19 07  22 59 35.645   +27 24 04.52  1.1540 2.0172 139.4 22.3 1634 171
2025 10 19 08  22 59 35.219   +27 23 19.25  1.1544 2.0174 139.4 22.3 1642 172
2025 10 19 09  22 59 34.797   +27 22 34.00  1.1547 2.0175 139.3 22.3 1651 172
2025 10 19 10  22 59 34.380   +27 21 48.75  1.1551 2.0177 139.3 22.3 1660 172
2025 10 19 11  22 59 33.966   +27 21 03.51  1.1554 2.0179 139.3 22.3 1668 172
2025 10 19 12  22 59 33.557   +27 20 18.29  1.1558 2.0180 139.3 22.3 1677 172
2025 10 19 13  22 59 33.151   +27 19 33.08  1.1561 2.0182 139.2 22.3 1686 172
2025 10 19 14  22 59 32.750   +27 18 47.87  1.1565 2.0184 139.2 22.3 1694 172
2025 10 19 15  22 59 32.353   +27 18 02.68  1.1568 2.0185 139.2 22.3 1703 172
2025 10 19 16  22 59 31.961   +27 17 17.50  1.1572 2.0187 139.2 22.3 1712 172
2025 10 19 17  22 59 31.572   +27 16 32.33  1.1575 2.0189 139.1 22.3 1721 172
2025 10 19 18  22 59 31.188   +27 15 47.18  1.1579 2.0190 139.1 22.3 1730 172
2025 10 19 19  22 59 30.807   +27 15 02.03  1.1582 2.0192 139.1 22.3 1739 172
2025 10 19 20  22 59 30.431   +27 14 16.90  1.1586 2.0194 139.1 22.3 1747 172
2025 10 19 21  22 59 30.059   +27 13 31.77  1.1589 2.0196 139.1 22.3 1756 172
2025 10 19 22  22 59 29.691   +27 12 46.66  1.1593 2.0197 139.0 22.3 1765 172
2025 10 19 23  22 59 29.327   +27 12 01.57  1.1596 2.0199 139.0 22.3 1774 172
2025 10 20 00  22 59 28.967   +27 11 16.48  1.1600 2.0201 139.0 22.3 1783 172
2025 10 20 01  22 59 28.612   +27 10 31.40  1.1603 2.0202 139.0 22.3 1792 172